Location: Aula-Vintri
(58.3875°N, 22.4322°E)
Time: 19:42:27
(UTC+00:00)

Cosmos 1892 - Pass Details

Date: 13 October 2019
Orbit: 504 x 526 km, 82.5° (Epoch: 11 November)

Event Time Altitude Azimuth Distance (km) Brightness Sun altitude
Rises 17:51:00 0° 350° (N) 2,661 6.7 -18.9°
Reaches altitude 10° 17:53:20 10° 1° (N) 1,763 5.6 -19.2°
Enters shadow 17:56:01 29° 40° (NE) 967 3.8 -19.6°
